Flag for Canada Weather past 2 weeks in Fort Nelson, British Columbia, Canada

-2 °F

Passing clouds.

Feels Like: -2 °F
Forecast: 3 / 16 °F
Wind: No wind

Location: Fort Nelson

Current Time: Nov 24, 2015 at 11:59:41 PM

Latest Report: Nov 24, 2015 at 11:00 PM

Visibility: 15 mi

Pressure: 30.31 "Hg

Humidity: 84%

Dew point: -6 °F

Location of Fort NelsonLocation

Historic Weather in Fort Nelson — Graph


Fort Nelson temperature yesterday

Maximum temperature yesterday: 16 °F (at 12:00 AM)
Minimum temperature yesterday: 1 °F (at 10:00 AM)
Average temperature yesterday: 10 °F

Past Weeks' High & Low Weather Summary

High43 °F (Nov 21, 9:00 PM)100% (Nov 9, 11:00 PM)30.50 "Hg (Nov 9, 11:00 PM)
Low-6 °F (Nov 18, 7:00 AM)28% (Nov 22, 3:00 PM)29.03 "Hg (Nov 13, 12:00 AM)
Average14 °F81%29.77 "Hg
* Reported Nov 9 10:00 PM — Nov 24 10:00 PM, Fort Nelson, Weather by CustomWeather, © 2015

Note: Actual official high and low records may vary slightly from our data, if they occured in-between our weather recording intervals... More about our weather records


Fort Nelson weather history for previous 24 hours

Time TempWeatherWind HumidityBarometerVisibility
10:00 PM
Tue, Nov 24
-2 °FPassing clouds.No wind84%30.30 "Hg15 mi
9:00 PM0 °FPassing clouds.3 mph84%30.30 "Hg15 mi
8:00 PM3 °FPassing clouds.5 mph78%30.30 "Hg15 mi
7:00 PM3 °FPassing clouds.5 mph78%30.29 "Hg15 mi
6:00 PM5 °FPassing clouds.6 mph78%30.28 "Hg15 mi
5:00 PM5 °FPassing clouds.7 mph78%30.28 "Hg20 mi
4:00 PM7 °FPartly sunny.7 mph72%30.28 "Hg30 mi
3:00 PM5 °FPartly sunny.6 mph78%30.29 "Hg30 mi
2:00 PM3 °FScattered clouds.5 mph78%30.30 "Hg30 mi
1:00 PM3 °FPartly sunny.8 mph78%30.30 "Hg30 mi
12:00 PM3 °FPartly sunny.9 mph78%30.32 "Hg30 mi
11:00 AM1 °FPartly sunny.7 mph78%30.35 "Hg30 mi
10:00 AM0 °FScattered clouds.7 mph78%30.36 "Hg30 mi
9:00 AM0 °FPassing clouds.6 mph78%30.37 "Hg20 mi
8:00 AM0 °FPassing clouds.8 mph84%30.40 "Hg15 mi
7:00 AM0 °FPassing clouds.6 mph84%30.43 "Hg15 mi
6:00 AM0 °FPassing clouds.5 mph84%30.45 "Hg15 mi
5:00 AM1 °FPassing clouds.7 mph85%30.47 "Hg15 mi
4:00 AM1 °FPassing clouds.6 mph85%30.48 "Hg15 mi
3:00 AM3 °FPassing clouds.5 mph92%30.49 "Hg15 mi
2:00 AM3 °FPassing clouds.5 mph92%30.50 "Hg15 mi
1:00 AM7 °FPassing clouds.No wind92%30.50 "Hg15 mi
12:00 AM9 °FPassing clouds.2 mph92%30.50 "Hg15 mi
11:00 PM
Mon, Nov 23
10 °FPassing clouds.3 mph85%30.49 "Hg15 mi
Weather by CustomWeather, © 2015

See weather overviewHow to use our weather pages